Regional Weather Roundup
Issued by NWS Albany, NY

Home | Current Version | Previous Version | Text Only | Print | Product List | Glossary On
Versions: 1 2 3 4 5 6 7 8 9 10 11 12 13 14 15 16 17 18 19 20 21 22 23 24 25 26 27
000
ASUS41 KALY 291410
RWRALY

NEW YORK STATE HOURLY WEATHER ROUNDUP
NATIONAL WEATHER SERVICE ALBANY NY
1000 AM EDT FRI JUL 29 2016

NOTE: "FAIR" INDICATES FEW OR NO CLOUDS BELOW 12,000 FEET WITH NO
SIGNIFICANT WEATHER AND/OR NO OBSTRUCTIONS TO VISIBILITY.

NYZ032-033-038>043-046>054-057>066-NYZ062>081-082-084-291500-
EAST


CITY           SKY/WX    TMP DP  RH WIND       PRES   REMARKS
ALBANY         PTSUNNY   76  67  73 N7        29.90S
GLENS FALLS    MOSUNNY   76  65  68 N7        29.91R
POUGHKEEPSIE   PTSUNNY   77  70  79 N6        29.88R
NEWBURGH       PTSUNNY   73  70  88 VRB5      29.91R
MONTGOMERY     MOSUNNY   77  68  73 VRB5      29.89S
WHITE PLAINS   LGT RAIN  71  67  87 NE6       29.87S
ISLIP          RAIN      69  68  96 N10       29.84S FOG
NEW YORK CITY  LGT RAIN  72  68  87 NE12      29.84F
CENTRAL PARK   CLOUDY    70  67  90 VRB7      29.88F FOG
$$

NYZ005>009-017-018-044>046-055-056-291500-
CENTRAL


CITY           SKY/WX    TMP DP  RH WIND       PRES   REMARKS
FULTON         SUNNY     81  65  58 NE5       29.93R
SYRACUSE       MOSUNNY   76  67  73 N3        29.91S
ROME           SUNNY     76  67  73 CALM      29.92S
ELMIRA         SUNNY     79  63  57 E7        29.92F
BINGHAMTON     SUNNY     76  62  62 N6        29.95R
MONTICELLO     CLOUDY    70  68  94 NE3       29.95S
$$

NYZ026>034-041>043-087-291500-
NORTH


CITY           SKY/WX    TMP DP  RH WIND       PRES   REMARKS
WATERTOWN      SUNNY     74  58  57 N10       29.94S
FORT DRUM      NOT AVBL
MASSENA        MOSUNNY   71  57  61 N8        29.97S
SARANAC LAKE   CLOUDY    72  56  57 NE7       29.97S
PLATTSBURGH    CLOUDY    73  63  70 N7        29.93S
$$

NYZ001>004-010>016-019>021-085-291500-
WEST


CITY           SKY/WX    TMP DP  RH WIND       PRES   REMARKS
NIAGARA FALLS  CLOUDY    75  62  64 E10       29.96R
BUFFALO        PTSUNNY   75  65  70 NE10      29.96R
DUNKIRK        SUNNY     78  63  59 VRB6      29.95R
JAMESTOWN      SUNNY     73  57  56 E3        29.99R
WELLSVILLE     SUNNY     74  61  63 SE5       30.01S
ROCHESTER      PTSUNNY   77  65  66 N12       29.96S
PENN YAN       MOSUNNY   77  64  64 VRB3      29.95S
$$

             KEY
       WCI = WIND CHILL INDEX
       VSB = VISIBILITY
       HX  = HEAT INDEX
$$




USA.gov is the U.S. government's official web portal to all federal, state and local government web resources and services.